Dewpoint
72 72 71 67 60 57 52 53 52 55 55 59 59 58 58 61 56 55 67 70 70 70 72 72 75 75 75 76 76 76 76 76 76 76 76 75 75 74 74 74 74 74 74 74 73 73 73 73 72
71 71 67 60 54 49 49 54 53 56 59 60 60 60 60 60 63 66 67 70 71 71 72 72 76 76 75 76 76 76 75 75 75 75 75 75 75 74 74 73 73 74 73 73 73 73 73 72 71
71 68 59 58 54 50 51 54 57 58 59 59 59 61 60 61 64 66 68 70 71 72 72 73 75 76 75 75 76 76 75 75 75 75 75 75 74 74 73 73 73 73 74 73 73 73 73 72 72
68 66 64 56 52 54 53 57 57 58 58 60 60 60 63 64 65 68 69 70 71 72 73 74 75 75 75 75 75 76 75 75 75 75 75 74 74 74 73 73 73 73 74 73 73 73 73 72 72
68 65 55 54 51 54 54 58 58 57 58 59 60 60 62 66 68 68 69 70 71 72 73 73 76 75 75 75 75 75 75 75 74 74 74 74 74 73 73 73 73 73 74 73 73 72 72 72 72
60 64 54 51 51 53 57 58 58 58 59 60 60 60 63 67 67 68 69 69 71 72 73 73 75 75 75 74 75 75 75 75 75 74 74 74 73 73 72 72 72 72 73 73 72 72 72 71 71
58 57 52 51 52 53 56 58 58 58 58 58 60 60 63 65 67 67 69 69 71 72 73 72 72 73 75 74 74 74 74 75 75 74 74 74 73 72 72 72 72 72 72 72 72 72 72 71 72
60 56 52 53 52 52 57 57 59 57 58 60 61 59 61 65 67 68 69 70 72 73 73 72 72 72 73 73 74 74 74 75 75 75 74 74 73 72 73 75 73 73 72 72 72 71 71 72 72
63 53 50 50 50 53 57 56 58 59 58 59 60 61 62 67 68 68 68 69 71 72 72 72 72 72 73 73 73 74 74 75 75 74 74 74 74 73 73 74 74 72 72 72 71 71 71 72 72
56 51 49 49 51 54 56 57 57 58 57 58 59 63 65 66 67 67 67 67 68 70 72 72 72 73 74 73 73 73 72 74 75 74 74 74 74 74 73 72 74 72 72 72 72 72 70 71 73
55 53 52 48 49 56 56 57 58 57 55 58 59 62 64 66 66 66 66 66 67 69 71 73 73 73 74 73 72 72 72 73 74 73 73 73 74 73 73 74 73 74 73 74 73 73 71 70 72
54 54 54 50 48 54 56 57 56 56 54 58 61 63 64 65 65 66 67 67 68 70 70 72 73 73 73 72 72 72 72 72 72 72 72 71 72 72 72 72 73 73 74 73 72 73 72 72 71
55 53 49 50 49 55 56 56 55 56 58 60 61 62 64 65 65 66 67 67 67 69 70 72 73 73 72 71 72 71 71 72 72 71 71 71 71 72 71 72 73 72 72 74 73 72 72 72 71
43 50 48 42 43 51 54 55 56 57 58 59 60 61 63 64 65 65 66 67 67 68 69 71 72 73 72 71 70 71 71 71 71 71 70 71 71 72 72 72 72 73 73 73 73 73 72 72 72
31 32 35 44 44 50 54 53 54 57 59 59 60 61 62 63 64 65 66 67 68 68 69 70 71 72 72 70 70 70 70 70 70 70 71 72 72 72 72 72 71 72 73 72 73 71 71 68 66
22 24 22 27 44 48 53 50 53 56 58 59 59 60 61 62 63 65 66 67 68 69 69 70 70 71 71 70 70 70 69 69 70 70 71 72 72 72 72 72 72 72 73 73 71 70 68 65 63
22 23 21 24 38 40 50 43 47 56 56 59 59 60 60 61 63 64 65 67 68 68 69 69 70 70 71 71 70 70 70 70 70 71 71 72 72 73 72 72 72 73 73 73 72 70 67 64 62
22 18 20 23 24 38 41 40 47 55 55 58 59 60 61 61 62 63 65 66 67 68 69 69 69 70 70 71 71 70 70 70 70 70 71 72 72 73 73 72 72 73 72 72 70 69 65 63 64
23 19 20 24 28 37 36 41 52 54 55 56 58 59 60 60 62 63 64 65 66 67 67 68 69 69 69 70 70 70 69 70 70 71 71 72 72 73 73 72 72 72 71 71 69 66 64 62 63
20 20 20 21 20 23 25 38 53 54 55 56 58 59 59 60 61 63 64 64 65 66 66 67 68 69 69 69 70 70 70 70 70 72 71 72 72 73 72 72 71 72 70 70 69 66 63 63 63
21 20 20 21 21 26 39 38 50 54 55 55 56 58 59 60 60 62 63 63 64 65 66 67 68 68 69 69 70 70 70 71 70 71 71 71 72 73 73 72 72 72 71 69 68 65 64 62 64
20 21 20 19 18 16 36 28 44 52 53 54 54 54 56 57 59 60 62 62 64 65 66 67 68 68 69 70 69 69 68 68 69 70 71 71 72 72 73 72 72 72 71 70 67 65 63 64 63
21 22 20 18 17 19 26 31 36 49 52 53 54 54 54 55 56 57 58 62 63 65 65 66 67 68 69 69 69 69 69 68 69 70 71 71 72 73 73 72 72 71 70 70 67 65 65 63 63
23 20 18 20 18 17 17 23 23 42 50 52 54 55 55 55 56 56 57 60 62 64 65 65 67 68 69 69 69 69 68 68 68 69 70 70 71 72 73 72 71 71 70 68 66 66 66 65 65
20 18 16 15 15 15 17 22 20 37 43 49 52 53 54 56 56 56 56 57 61 63 64 65 67 67 68 69 69 69 69 69 69 68 69 70 70 71 72 72 71 69 69 68 67 66 66 66 65
18 17 18 12 13 15 19 18 21 28 42 44 47 49 51 53 55 56 57 57 58 62 64 65 67 67 68 69 69 69 69 69 69 69 69 69 70 70 72 72 72 70 68 68 67 65 64 66 65
18 17 16 12 23 11 16 21 25 31 32 43 43 44 45 48 53 54 56 56 57 60 63 64 66 67 68 69 69 69 70 70 69 70 69 69 70 71 71 72 71 69 68 67 66 65 65 65 65
16 17 15 12 13 10 12 19 20 31 30 35 40 43 44 45 48 52 54 55 56 58 61 64 65 66 67 69 69 69 70 70 70 70 69 69 70 71 71 71 71 69 68 67 66 65 65 65 64
16 13 13 15 13 11 9 13 23 29 28 26 30 41 44 45 46 49 52 54 55 56 60 62 64 65 66 69 69 69 69 70 70 70 70 69 70 71 70 71 70 69 67 67 66 66 65 65 65
20 18 11 15 11 11 12 12 21 21 28 32 30 32 44 47 47 48 50 52 54 56 58 61 63 64 65 67 69 69 70 70 70 70 70 70 70 70 70 70 70 69 68 67 66 65 65 65 65
Lifted_Index
-3 -2 -2 -1 -1 -1 -1 -1 -1 -0 -0 -0 0 0 0 0 0 -0 -0 -0 -1 -1 -2 -3 -4 -4 -5 -5 -6 -6 -6 -6 -6 -6 -6 -6 -5 -5 -5 -5 -5 -6 -6 -6 -6 -5 -5 -5 -5
-3 -2 -1 -1 -1 -1 -1 -1 -1 -0 -0 -0 -0 0 0 0 0 0 -0 -1 -1 -2 -2 -3 -4 -5 -5 -5 -6 -6 -6 -6 -6 -6 -6 -6 -6 -5 -5 -5 -6 -6 -6 -6 -6 -5 -5 -5 -5
-2 -2 -1 -1 -1 -1 -1 -1 -1 -1 -1 -1 -0 -0 0 0 0 -0 -0 -1 -2 -2 -3 -3 -4 -5 -5 -5 -6 -6 -6 -6 -6 -6 -6 -6 -5 -5 -5 -6 -6 -6 -6 -6 -6 -5 -5 -5 -5
-2 -2 -2 -2 -1 -1 -1 -1 -1 -1 -1 -1 -1 -0 -0 -0 -0 -0 -0 -1 -2 -2 -3 -4 -5 -5 -5 -5 -6 -6 -6 -6 -6 -6 -6 -5 -5 -5 -5 -6 -6 -6 -6 -6 -5 -5 -5 -5 -5
-2 -2 -2 -2 -2 -1 -1 -2 -2 -1 -1 -1 -1 -1 -1 -1 -0 0 -0 -1 -2 -3 -3 -4 -5 -5 -5 -5 -6 -6 -6 -6 -6 -6 -6 -6 -5 -5 -6 -6 -6 -6 -6 -6 -5 -5 -5 -5 -5
-2 -2 -1 -1 -1 -2 -2 -2 -2 -1 -1 -1 -1 -1 -1 -1 -0 0 -0 -1 -2 -3 -3 -4 -4 -5 -5 -5 -5 -5 -6 -6 -6 -6 -6 -6 -6 -5 -6 -6 -6 -6 -6 -6 -5 -5 -5 -5 -5
-0 -1 -1 -1 -1 -2 -1 -2 -1 -1 -1 -1 -1 -1 -1 -1 -1 -0 -0 -1 -2 -3 -3 -4 -4 -4 -5 -5 -5 -5 -5 -6 -6 -6 -6 -6 -5 -5 -5 -5 -5 -5 -5 -5 -5 -5 -4 -4 -4
0 -0 -1 -1 -1 -2 -2 -2 -2 -2 -2 -2 -1 -1 -1 -1 -1 -1 -1 -2 -3 -3 -3 -3 -4 -4 -4 -4 -4 -5 -5 -6 -6 -6 -5 -5 -5 -5 -5 -5 -5 -5 -5 -5 -5 -4 -4 -4 -4
-1 -1 -1 -1 -2 -3 -3 -2 -2 -2 -2 -2 -2 -1 -1 -2 -2 -2 -2 -2 -3 -4 -4 -3 -3 -4 -4 -4 -4 -4 -5 -5 -5 -5 -5 -5 -5 -4 -4 -5 -5 -5 -5 -5 -4 -4 -4 -4 -4
-2 -1 -1 -1 -1 -3 -3 -3 -2 -2 -2 -2 -2 -2 -2 -2 -2 -2 -2 -2 -3 -3 -3 -3 -4 -4 -4 -4 -4 -4 -4 -5 -5 -5 -4 -4 -4 -4 -4 -4 -4 -4 -4 -4 -4 -3 -3 -3 -3
-2 -2 -1 -0 -1 -2 -4 -4 -3 -2 -2 -2 -2 -2 -2 -2 -3 -3 -2 -2 -2 -3 -3 -4 -4 -4 -4 -4 -4 -4 -4 -4 -5 -4 -4 -3 -3 -3 -3 -3 -4 -4 -4 -4 -3 -3 -3 -2 -3
-2 -1 -1 0 0 -1 -3 -4 -4 -3 -3 -2 -2 -2 -2 -2 -3 -3 -2 -2 -2 -2 -3 -3 -4 -4 -4 -4 -4 -4 -4 -4 -4 -3 -3 -3 -3 -3 -3 -3 -3 -3 -3 -3 -3 -3 -3 -2 -3
-1 -1 0 1 1 -1 -2 -3 -4 -4 -3 -3 -3 -2 -2 -2 -2 -2 -2 -2 -2 -2 -3 -3 -4 -4 -4 -4 -3 -3 -3 -3 -3 -2 -2 -2 -3 -3 -3 -4 -4 -4 -4 -4 -3 -3 -3 -3 -3
1 1 2 2 2 0 -2 -3 -4 -4 -4 -4 -3 -3 -2 -2 -2 -2 -2 -2 -2 -2 -2 -3 -3 -4 -4 -3 -3 -2 -2 -2 -2 -2 -2 -2 -3 -3 -4 -4 -4 -4 -4 -4 -4 -3 -3 -3 -3
3 3 2 3 2 0 -1 -3 -3 -4 -4 -4 -3 -3 -2 -2 -2 -2 -2 -2 -2 -2 -2 -2 -3 -3 -3 -3 -2 -2 -2 -2 -2 -2 -2 -2 -3 -3 -4 -4 -4 -4 -4 -4 -3 -3 -3 -2 -2
4 3 2 2 2 1 -1 -2 -3 -4 -4 -4 -4 -3 -2 -2 -2 -2 -2 -2 -2 -2 -2 -2 -2 -2 -3 -2 -2 -1 -1 -1 -2 -2 -3 -3 -3 -4 -4 -4 -4 -4 -4 -4 -3 -3 -2 -1 -1
4 3 1 1 1 1 -0 -1 -2 -3 -4 -4 -4 -3 -2 -2 -2 -2 -2 -2 -2 -2 -2 -2 -2 -2 -2 -2 -2 -1 -2 -2 -2 -3 -3 -3 -4 -4 -4 -4 -4 -3 -3 -3 -3 -2 -2 -1 -0
4 3 1 1 1 2 2 1 -1 -3 -4 -4 -4 -3 -2 -2 -1 -2 -2 -2 -2 -2 -2 -2 -2 -2 -2 -2 -2 -2 -2 -3 -3 -3 -3 -3 -4 -4 -4 -4 -3 -3 -3 -3 -3 -2 -1 -0 0
4 3 2 1 1 2 2 2 -0 -2 -4 -4 -4 -4 -3 -2 -1 -1 -1 -2 -2 -2 -2 -2 -2 -2 -2 -2 -2 -2 -2 -3 -3 -3 -3 -3 -4 -4 -4 -3 -3 -3 -3 -3 -2 -2 -1 -0 1
5 4 3 2 1 2 2 2 0 -2 -3 -3 -4 -4 -3 -2 -2 -1 -1 -2 -2 -2 -2 -2 -2 -2 -1 -2 -2 -2 -3 -3 -3 -3 -3 -3 -3 -3 -3 -3 -3 -3 -3 -3 -2 -2 -1 -0 1
5 4 3 2 1 1 2 2 1 -1 -2 -3 -3 -3 -3 -2 -2 -2 -2 -2 -2 -2 -2 -2 -2 -1 -1 -2 -2 -2 -3 -3 -3 -3 -3 -3 -3 -3 -3 -3 -3 -3 -3 -3 -3 -2 -1 1 1
5 4 4 3 2 1 2 3 2 0 -1 -2 -2 -2 -2 -2 -1 -1 -1 -2 -2 -2 -2 -2 -1 -1 -1 -2 -2 -2 -2 -3 -3 -3 -3 -3 -3 -3 -3 -3 -3 -3 -3 -3 -3 -2 -1 1 2
5 5 4 3 2 1 2 3 3 1 -0 -1 -2 -2 -1 -1 -1 -1 -1 -1 -1 -1 -1 -1 -1 -1 -1 -1 -2 -2 -2 -2 -2 -2 -2 -3 -3 -3 -3 -4 -4 -4 -3 -3 -3 -3 -1 1 1
7 6 4 3 2 2 2 3 4 3 1 -1 -2 -2 -1 -1 -1 -1 -0 -0 -0 -0 -1 -1 -1 -1 -1 -1 -1 -2 -2 -2 -2 -2 -2 -2 -3 -3 -3 -4 -4 -4 -4 -3 -3 -3 -1 0 1
8 6 4 2 2 2 3 4 5 4 2 0 -1 -1 -2 -1 -1 -1 -0 0 0 -0 -0 -0 -1 -1 -1 -1 -1 -2 -2 -2 -2 -2 -2 -2 -3 -3 -3 -4 -4 -4 -4 -4 -3 -3 -1 0 1
7 6 4 2 2 3 4 4 5 5 4 2 1 -0 -1 -1 -1 -1 -1 -0 -0 -0 -1 -1 -1 -1 -1 -2 -2 -2 -2 -2 -2 -3 -3 -3 -3 -3 -3 -4 -4 -4 -4 -4 -3 -2 -1 0 1
7 6 5 4 3 3 3 4 5 5 4 3 2 1 1 0 -0 -0 -1 -1 -1 -0 -1 -1 -1 -1 -2 -2 -3 -3 -3 -3 -3 -3 -3 -3 -3 -3 -3 -4 -4 -4 -4 -4 -3 -2 -1 0 0
7 7 6 5 3 2 2 4 5 5 4 3 3 2 2 1 1 0 -0 -1 -1 -1 -1 -1 -1 -1 -2 -3 -3 -3 -3 -3 -3 -3 -4 -4 -4 -3 -4 -4 -4 -5 -4 -4 -3 -2 -1 -0 0
7 7 6 5 3 2 1 3 5 5 4 3 3 2 2 2 1 1 -0 -1 -1 -1 -1 -1 -1 -1 -2 -3 -3 -3 -3 -3 -3 -4 -4 -4 -4 -4 -4 -4 -4 -5 -5 -4 -3 -3 -2 -0 0
7 6 6 5 3 3 2 3 6 6 5 3 2 2 2 2 2 1 0 -0 -1 -1 -1 -1 -1 -1 -2 -3 -3 -4 -4 -4 -4 -4 -4 -4 -4 -4 -4 -4 -4 -5 -5 -4 -4 -3 -2 -1 0